Regional Weather Roundup
Issued by NWS

Home | Current Version | Previous Version | Text Only | Print | Product List | Glossary On
Versions: 1 2 3 4 5 6 7 8 9 10 11 12 13 14 15 16 17 18 19 20 21 22 23 24 25 26 27 28 29 30 31 32 33 34 35 36 37 38 39 40 41 42 43 44 45 46 47 48 49 50
000
ASUS45 KBOU 021507
RWRCO

WEATHER ROUNDUP FOR COLORADO
NATIONAL WEATHER SERVICE DENVER/BOULDER CO
900 AM MDT WED SEP 02 2015

NOTE: "FAIR" INDICATES FEW OR NO CLOUDS BELOW 12000 FEET WITH NO
SIGNIFICANT WEATHER AND/OR OBSTRUCTIONS TO VISIBILITY.

COZ001>005-013-030-031-021600-
...NORTHWEST COLORADO...

CITY           SKY/WX    TMP DP  RH WIND       PRES   REMARKS
CRAIG          SUNNY     64  45  49 E13       30.24F
HAYDEN         NOT AVBL
MEEKER         SUNNY     59  47  64 CALM      30.26F
MOUNT WERNER   NOT AVBL
STEAMBOAT SPGS SUNNY     53  42  66 CALM      30.30S
WALDEN         SUNNY     55  43  62 S7        30.36S
$$

COZ006>008-011-021600-
...WEST CENTRAL VALLEYS...

CITY           SKY/WX    TMP DP  RH WIND       PRES   REMARKS
GRAND JUNCTION SUNNY     70  49  47 SE10      30.17S
MONTROSE       SUNNY     65  48  54 E3        30.26S
EAGLE          SUNNY     52  46  82 CALM      30.36F
RIFLE          SUNNY     59  50  72 CALM      30.25S
DELTA          SUNNY     67  50  54 E3        30.23S HAZE
NUCLA          SUNNY     64  45  48 SE3       30.29S
$$

COZ017>023-064>068-021600-
...SOUTHWEST COLORADO...

CITY           SKY/WX    TMP DP  RH WIND       PRES   REMARKS
DURANGO        SUNNY     62  46  55 CALM      30.31S
CORTEZ         SUNNY     63  49  60 E3        30.25S
PAGOSA SPRINGS SUNNY     62  45  54 CALM      30.39S
TELLURIDE      SUNNY     57  47  67 SE5       30.48S
WOLF CREEK PAS NOT AVBL
$$

COZ009-010-012-014-032>034-037-058>063-021600-
...CENTRAL COLORADO...

CITY           SKY/WX    TMP DP  RH WIND       PRES   REMARKS
ASPEN          MOSUNNY   56  46  69 N3        30.36F
BUENA VISTA    MOSUNNY   56  44  66 NW6       30.40R
COPPER MTN     MOSUNNY   52  37  58 W17G23    30.63R
BERTHOUD PASS  FAIR      41  30  65 NW25G37   30.64S
COTTONWOOD PAS MOSUNNY   55  41  58 N5        30.49S
GUNNISON       MOSUNNY   50  45  81 CALM      30.45S
KREMMLING      SUNNY     50  43  76 CALM      30.39S
LEADVILLE      MOSUNNY   46  44  93 CALM      30.49S
MONARCH PASS   SUNNY     45  37  76 W17       30.74R
SALIDA         MOSUNNY   56  46  69 NW7       30.44S
SUNLIGHT       SUNNY     52  43  71 CALM      30.58R
WILKERSON PASS PTSUNNY   46  34  61 NW10G20   30.59R
$$

COZ069>075-021600-
...SAN LUIS VALLEY/SANGRE DE CRISTO MOUNTAINS...

CITY           SKY/WX    TMP DP  RH WIND       PRES   REMARKS
ALAMOSA        SUNNY     61  46  57 CALM      30.37S
LA VETA PASS   MOSUNNY   55  41  58 SW3       30.52R
SAGUACHE       SUNNY     61  43  51 NW10      30.40S
$$

COZ035-036-038>040-021600-
...NORTHERN COLORADO FRONT RANGE...

CITY           SKY/WX    TMP DP  RH WIND       PRES   REMARKS
DENVER INTL AP MOSUNNY   77  43  29 SW7       30.12S
DMNS CITY PARK   N/A     73  47  39 SE8       30.12S
AURORA         MOSUNNY   75  44  32 S7        30.15S
FRONT RANGE AP NOT AVBL
ERIE MUNI ARPT SUNNY     73  45  36 CALM      30.10S
BOULDER MUN AP SUNNY     73  45  35 CALM      30.10S
CENTENNIAL     PTSUNNY   74  42  31 W7        30.16S
BROOMFIELD     PTSUNNY   77  45  31 VRB3      30.14R
FORT COLLINS   SUNNY     72  46  40 S8        30.11R
LONGMONT       SUNNY     74  46  37 CALM      30.11S
$$

COZ041-046-047-076>085-087-088-021600-
...PIKES PEAK/PALMER DIVIDE AND SOUTHERN FOOTHILLS...

CITY           SKY/WX    TMP DP  RH WIND       PRES   REMARKS
COLO. SPRINGS  PTSUNNY   68  48  48 W6        30.20R
A. F. ACADEMY  PTSUNNY   72  40  31 NW6       30.21R
ELLICOTT       PTSUNNY  N/A N/A N/A N5        30.17S
FALCON         PTSUNNY   69  40  35 MISG      30.24S
FORT CARSON    PTSUNNY   69  55  60 CALM      30.16S
LIMON          MOSUNNY   76  45  33 NW10      30.12R
MONUMENT HILL  MOSUNNY   70  39  32 W8        30.26R
TRINIDAD       SUNNY     74  48  39 SW12      30.18S
$$

COZ042>045-048>051-090-091-021600-
...NORTHEAST COLORADO...

CITY           SKY/WX    TMP DP  RH WIND       PRES   REMARKS
GREELEY ARPT   SUNNY     70  52  52 SW3       30.09S
AKRON          SUNNY     76  46  34 NW7       30.06R
BURLINGTON     SUNNY     81  54  39 VRB3      30.03S
WRAY           CLOUDY    77  51  40 W7        29.99F
STERLING       NOT AVBL
HOLYOKE        SUNNY     79  50  36 W5        29.99R
FORT MORGAN    SUNNY     72  45  37 SW5       30.06S
$$

COZ086-089-092>099-021600-
...SOUTHEAST COLORADO...

CITY           SKY/WX    TMP DP  RH WIND       PRES   REMARKS
PUEBLO         PTSUNNY   74  49  41 SW7       30.09S
LA JUNTA       SUNNY     80  48  32 W13       30.05R
LAMAR          SUNNY     77  53  43 W12       30.01R
SPRINGFIELD      N/A     84  48  28 NW10G18   30.06S
$$




USA.gov is the U.S. government's official web portal to all federal, state and local government web resources and services.